FENGYUN 1C DEB, 30676

Orbit data source: Space-Track

FENGYUN 1C DEB, 30676 is space debris in SSO originally from a launch on Mon, 10 May 1999 UTC launched from the Taiyaun Space Center, China (TSC). Fengyun 1C debris stems from the Chinese weather satellite Fengyun-1C, which was intentionally destroyed by a Chinese anti-satellite missile in 2007. This event dramatically increased the amount of space debris, with thousands of trackable fragments posing hazards to satellites and human spaceflight. The Fengyun 1C debris cloud has become a focal point in discussions about space sustainability and the need for international regulations to prevent the creation of new debris.

Loading next visibility...
Identifier
30676, 1999-025AQJ
Orbit
SSO
Country
Flag of CNCN / PRC
Related business
Manufacturer
Unknown
Mission
Spacecraft
Bus & Motor
Unknown
Mass
Unknown
Launch date (UTC)
1999-05-10 (27 years ago)
Launch vehicle
Unknown
Launch site
Taiyaun Space Center, China (TSC)
Object type
Payload
Rocket body
Debris
Shape & HBR
Unknown shape, 0.1 m
Radar Cross Section
Small (<0.1 m²)

Expand to show TLE details & history
Last TLE update: 1 day ago

TLE from 1 day ago
0 FENGYUN 1C DEB
1 30676U 99025AQJ 26070.45343903  .00003760  00000-0  17857-2 0  9999
2 30676  98.2728 249.8121 0470861 167.4625 193.8736 13.74406472951420
Epoch: 2026-03-11T10:52Z
TLE epoch observation values (Epoch: 2026-03-11T10:52:57.132Z)
Latitude
0.00003°
Longitude
-82.54341°
Altitude
1,324.144 km
Speed
7.028 km/s
True Right ascension
16h 39m 14s
True Declination
0° 00' 00"
Sunlit
Object was in daylight at epoch
Visualization orbit readout
Latitude
Unknown
Longitude
Unknown
Altitude
Unknown
Speed
Unknown
Apparent Right ascension
Unknown
Apparent Declination
Unknown
Sunlit
N/A
Visualization observer readout
Local Sidereal Time
02:24:41
Azimuth
Unknown
Elevation
Unknown
Doppler factor
Unknown
Orbital elements
Apogee altitude
1,327.496 km
Perigee altitude
634.472 km
Semi-major axis
7,359.121 km
Eccentricity
0.04709
Inclination
98.2728°
RAAN
249.8121°
Arg. of periapsis
167.4625°
True anomaly
192.64999°
Mean anomaly
193.8736°
Eccentric anomaly
193.25502°
Mean motion
3.43799 °/min
Orbital period
104.71 mins
BSTAR
0.0017857
Loading maneuver chart data...
Computing Atmospheric mass density...

Documentation

Showing up to 5 results
|